Regional Weather Roundup
Issued by NWS

Home | Current Version | Previous Version | Graphics & Text | Print | Product List | Glossary On
Versions: 1 2 3 4 5 6 7 8 9 10 11 12 13 14 15 16 17 18 19 20 21 22 23 24 25 26 27 28 29 30 31 32 33 34 35 36 37 38 39 40 41 42 43 44 45 46 47 48 49 50
000
ASUS43 KFSD 302202
RWRSD

WEATHER ROUNDUP FOR SOUTH DAKOTA
NATIONAL WEATHER SERVICE SIOUX FALLS SD
500 PM CDT TUE SEP 30 2014

NOTE: "FAIR" INDICATES FEW OR NO CLOUDS BELOW 12,000 FEET WITH NO
SIGNIFICANT WEATHER AND/OR OBSTRUCTIONS TO VISIBILITY.


SDZ001>005-009-010-012>017-302300-
NORTHWEST AND NORTH CENTRAL SOUTH DAKOTA

CITY           SKY/WX    TMP DP  RH WIND       PRES   REMARKS
BUFFALO          N/A     53  51  93 W13       29.44S
FAITH            N/A     57  54  89 W18       29.41R
MOBRIDGE       LGT RAIN  61  55  81 S16G26    29.38R
$$

SDZ012>016-024>037-041>051-057-063-072>074-302300-
SOUTHWEST AND SOUTH CENTRAL SOUTH DAKOTA

CITY           SKY/WX    TMP DP  RH WIND       PRES   REMARKS
RAPID CTY ARPT PTSUNNY   63  46  54 W12       29.55R
PIERRE         PTSUNNY   68  53  58 SW21G33   29.45R
CUSTER         PTSUNNY   53  43  68 W18G32    29.67R
ELLSWORTH AFB  PTSUNNY   63  47  56 W17       29.55R
PHILIP         CLOUDY    64  51  62 W25G37    29.52R
PINE RIDGE     MOSUNNY   66  47  50 W22       29.64R
WINNER         FAIR      76  45  33 SW24G36   29.56S
$$

SDZ004>011-016>023-039-040-302300-
NORTHEAST SOUTH DAKOTA

CITY           SKY/WX    TMP DP  RH WIND       PRES   REMARKS
ABERDEEN       CLOUDY    67  58  72 SE22G31   29.50F
WATERTOWN      CLOUDY    63  57  81 SE21G29   29.66F
SISSETON         N/A     52  50  93 S18G28    29.69F
$$

SDZ017-020-022-023-036>040-048>070-302300-
SOUTHEAST SOUTH DAKOTA

CITY           SKY/WX    TMP DP  RH WIND       PRES   REMARKS
SIOUX FALLS    CLOUDY    66  61  84 S22G30    29.71F
HURON          CLOUDY    75  48  38 S14G25    29.55R
CHAMBERLAIN    CLOUDY    71  48  42 SW24G36   29.56S
MITCHELL       CLOUDY    78  48  34 S16G28    29.58S
YANKTON        MOSUNNY   73  61  64 S21G30    29.67S
$$

ABBREVIATIONS USED IN REMARKS
   TC - TEMPERATURE IN CELSIUS
  WCI - WIND CHILL INDEX
   HX - HEAT INDEX
  VSB - VISIBILITY




USA.gov is the U.S. government's official web portal to all federal, state and local government web resources and services.